Miami Beach, Florida, United States (33109)
Lat: 25.79N, Lon: 80.13W
Wx Zone: FLZ173
Local Info
Past Weather Observations for Monday, April 14, 2014

NOTE: This archive is for the closest National Weather Service station to Miami Beach. Information may differ from the station used for current weather conditions.

Time Weather Temperature Dewpoint Humidity Pressure Winds Precip Visibility
23:53
Partly Cloudy
77°F / 25°C 72°F / 22°C 83% 29.95 in
(1014 mb)
SE 6.9 mph
(SE 11 kph)
- 10SM
22:53
Mostly Cloudy
77°F / 25°C 72°F / 22°C 83% 29.95 in
(1014 mb)
SE 9.2 mph
(SE 15 kph)
- 10SM
21:58
Mostly Cloudy
79°F / 26°C 72°F / 22°C 79% 29.95 in
(1014 mb)
SE 6.9 mph
(SE 11 kph)
- 10SM
21:53
Mostly Cloudy
79°F / 26°C 72°F / 22°C 79% 29.95 in
(1014 mb)
SE 5.8 mph
(SE 9 kph)
- 10SM
20:53
Partly Cloudy
79°F / 26°C 72°F / 22°C 79% 29.95 in
(1014 mb)
SE 6.9 mph
(SE 11 kph)
- 10SM
19:53
Partly Cloudy
79°F / 26°C 72°F / 22°C 79% 29.95 in
(1014 mb)
SE 9.2 mph
(SE 15 kph)
- 10SM
18:53
Mostly Cloudy
79°F / 26°C 72°F / 22°C 79% 29.95 in
(1014 mb)
SE 11.5 mph
(SE 19 kph)
- 10SM
17:53
Mostly Cloudy
81°F / 27°C 72°F / 22°C 74% 29.92 in
(1013 mb)
SE 11.5 mph
(SE 19 kph)
- 10SM
16:53
Mostly Cloudy
82°F / 28°C 72°F / 22°C 70% 29.92 in
(1013 mb)
SE 12.7 mph
(SE 20 kph)
- 10SM
15:53
Overcast
82°F / 28°C 72°F / 22°C 70% 29.95 in
(1014 mb)
SSE 12.7 mph
(SSE 20 kph)
- 10SM
14:53
Overcast
82°F / 28°C 70°F / 21°C 66% 29.95 in
(1014 mb)
SE 12.7 mph
(SE 20 kph)
- 10SM
13:53
Overcast
84°F / 29°C 70°F / 21°C 62% 29.98 in
(1015 mb)
SE 12.7 mph
(SE 20 kph)
- 10SM
12:53
Mostly Cloudy
84°F / 29°C 72°F / 22°C 66% 29.98 in
(1015 mb)
SE 15 mph
(SE 24 kph)
- 10SM
11:53
Mostly Cloudy
84°F / 29°C 70°F / 21°C 62% 30.01 in
(1016 mb)
SE 12.7 mph
(SE 20 kph)
- 10SM
10:53
Mostly Cloudy
84°F / 29°C 70°F / 21°C 62% 30.01 in
(1016 mb)
SSE 11.5 mph
(SSE 19 kph)
- 10SM
09:53
Mostly Cloudy
82°F / 28°C 70°F / 21°C 66% 30.04 in
(1017 mb)
SSE 11.5 mph
(SSE 19 kph)
- 10SM
09:47
Mostly Cloudy
82°F / 28°C 72°F / 22°C 70% 30.04 in
(1017 mb)
SE 13.8 mph
(SE 22 kph)
- 10SM
08:53
Mostly Cloudy
79°F / 26°C 72°F / 22°C 79% 30.01 in
(1016 mb)
SE 10.4 mph
(SE 17 kph)
- 10SM
08:08
Mostly Cloudy
79°F / 26°C 72°F / 22°C 79% 30.01 in
(1016 mb)
S 6.9 mph
(S 11 kph)
- 10SM
07:53
Mostly Cloudy
79°F / 26°C 72°F / 22°C 79% 30.01 in
(1016 mb)
SE 8.1 mph
(SE 13 kph)
- 10SM
06:53
Mostly Cloudy
75°F / 24°C 72°F / 22°C 89% 29.98 in
(1015 mb)
SE 5.8 mph
(SE 9 kph)
- 10SM
05:53
Mostly Cloudy
75°F / 24°C 72°F / 22°C 89% 29.98 in
(1015 mb)
SE 3.5 mph
(SE 6 kph)
- 10SM
04:53
Mostly Cloudy
75°F / 24°C 72°F / 22°C 89% 29.95 in
(1014 mb)
SE 3.5 mph
(SE 6 kph)
- 10SM
03:53
Partly Cloudy
75°F / 24°C 72°F / 22°C 89% 29.98 in
(1015 mb)
SE 4.6 mph
(SE 7 kph)
- 10SM
02:53
Partly Cloudy
75°F / 24°C 72°F / 22°C 89% 29.98 in
(1015 mb)
SE 6.9 mph
(SE 11 kph)
- 8SM
01:53
Partly Cloudy
75°F / 24°C 72°F / 22°C 89% 29.98 in
(1015 mb)
E 9.2 mph
(E 15 kph)
- 10SM
00:53
Partly Cloudy
75°F / 24°C 72°F / 22°C 89% 29.98 in
(1015 mb)
ESE 11.5 mph
(ESE 19 kph)
- 10SM
Time Weather Temperature Dewpoint Humidity Pressure Winds Precip Visibility


Weather for websites

WeatherForYou.com, LLC is not responsible for any damages or problems caused by this service. Current weather conditions are obtained from the closest station including government and personal stations which may have varying degrees of accuracy. Weather forecasts are derived from the NOAA NDFD. Like all things, this site belongs to Jesus Christ... He just trusts me to maintain it. If you have any questions or comments email webmaster@weatherforyou.com

Copyright © 2014, WeatherForYou.com LLC. All rights reserved.